Location: Seven Kings
(51.5667°N, 0.1000°E)
Time: 03:26:10
(UTC+00:00)

Cosmos 2263 Rocket - Pass Details

Date: 29 October 2020
Orbit: 822 x 850 km, 71.0° (Epoch: 24 November)

Event Time Altitude Azimuth Distance (km) Brightness Sun altitude
Rises 18:35:28 0° 330° (NNW) 3,421 5.8 -18.8°
Reaches altitude 10° 18:38:01 10° 336° (NNW) 2,485 5.0 -19.2°
Maximum altitude 18:43:33 50° 52° (NE) 1,083 2.4 -20.1°
Enters shadow 18:45:05 40° 95° (E) 1,247 2.5 -20.3°
